When you browse on this site, cookies collect data to enhance your experience and personalize the content and advertising you see.
Visit our Privacy Policy to learn more. By continuing to use the site, you agree to this use of cookies and data.
  • In Romania
  • List of Countries
  • For 7 days
  • Water Temperature
  • Satellite Maps
  • Weather Map
  • Weather Widgets
  • user-avatar
    Login

    Hourly Weather Korçe

    Today, 22 March, Friday

    Time Temperature Precipitation Wind Pressure Humidity
    00:00 +4°C° 0 mm 2 mps 671 mmHg 85%
    01:00 +3°C° 0 mm 3 mps 671 mmHg 84%
    02:00 +3°C° 0 mm 2 mps 671 mmHg 85%
    03:00 +3°C° 0 mm 2 mps 671 mmHg 86%
    04:00 +3°C° 0 mm 2 mps 671 mmHg 87%
    05:00 +3°C° 0 mm 2 mps 671 mmHg 86%
    06:00 +4°C° 0 mm 2 mps 671 mmHg 85%
    07:00 +4°C° 0 mm 3 mps 672 mmHg 81%
    08:00 +7°C° 0 mm 3 mps 672 mmHg 73%
    09:00 +8°C° 0 mm 3 mps 672 mmHg 66%
    10:00 +10°C° 0 mm 3 mps 673 mmHg 58%
    11:00 +11°C° 0 mm 3 mps 673 mmHg 54%
    12:00 +11°C° 0 mm 3 mps 672 mmHg 51%
    13:00 +12°C° 0 mm 3 mps 672 mmHg 47%
    14:00 +12°C° 0 mm 3 mps 672 mmHg 48%
    15:00 +12°C° 0 mm 3 mps 672 mmHg 49%
    16:00 +12°C° 0 mm 3 mps 671 mmHg 50%
    17:00 +10°C° 0 mm 3 mps 671 mmHg 57%
    18:00 +8°C° 0 mm 2 mps 670 mmHg 63%
    19:00 +7°C° 0 mm 2 mps 670 mmHg 69%
    20:00 +6°C° 0 mm 2 mps 670 mmHg 72%
    21:00 +6°C° 0 mm 2 mps 670 mmHg 75%
    22:00 +5°C° 0 mm 2 mps 670 mmHg 77%
    23:00 +5°C° 0 mm 2 mps 670 mmHg 79%

    Tomorrow, 23 March, Saturday

    Time Temperature Precipitation Wind Pressure Humidity
    00:00 +4°C° 0 mm 2 mps 670 mmHg 80%
    01:00 +4°C° 0 mm 2 mps 670 mmHg 81%
    02:00 +4°C° 0 mm 2 mps 669 mmHg 82%
    03:00 +4°C° 0 mm 2 mps 669 mmHg 82%
    04:00 +3°C° 0 mm 2 mps 669 mmHg 83%
    05:00 +4°C° 0 mm 2 mps 669 mmHg 80%
    06:00 +5°C° 0 mm 2 mps 669 mmHg 78%
    07:00 +5°C° 0 mm 2 mps 670 mmHg 75%
    08:00 +7°C° 0 mm 2 mps 670 mmHg 67%
    09:00 +9°C° 0 mm 2 mps 670 mmHg 58%
    10:00 +12°C° 0 mm 2 mps 671 mmHg 50%
    11:00 +13°C° 0 mm 2 mps 671 mmHg 47%
    12:00 +13°C° 0 mm 3 mps 671 mmHg 44%
    13:00 +14°C° 0 mm 3 mps 671 mmHg 42%
    14:00 +15°C° 0 mm 2 mps 670 mmHg 42%
    15:00 +15°C° 0 mm 2 mps 670 mmHg 43%
    16:00 +15°C° 0 mm 2 mps 670 mmHg 44%
    17:00 +13°C° 0 mm 2 mps 669 mmHg 50%
    18:00 +10°C° 0 mm 2 mps 669 mmHg 56%
    19:00 +8°C° 0 mm 2 mps 668 mmHg 62%
    20:00 +8°C° 0 mm 2 mps 669 mmHg 64%
    21:00 +7°C° 0 mm 2 mps 669 mmHg 65%
    22:00 +7°C° 0 mm 2 mps 669 mmHg 66%
    23:00 +6°C° 0 mm 2 mps 669 mmHg 67%

    Day after tomorrow, 24 March, Sunday

    Time Temperature Precipitation Wind Pressure Humidity
    00:00 +6°C° 0 mm 2 mps 669 mmHg 67%
    01:00 +6°C° 0 mm 2 mps 669 mmHg 68%
    02:00 +5°C° 0 mm 2 mps 668 mmHg 69%
    03:00 +5°C° 0 mm 2 mps 668 mmHg 71%
    04:00 +4°C° 0 mm 2 mps 668 mmHg 72%
    05:00 +5°C° 0 mm 2 mps 668 mmHg 72%
    06:00 +6°C° 0 mm 2 mps 669 mmHg 71%
    07:00 +6°C° 0 mm 2 mps 669 mmHg 71%
    08:00 +8°C° 0 mm 2 mps 669 mmHg 63%
    09:00 +10°C° 0 mm 2 mps 670 mmHg 55%
    10:00 +13°C° 0 mm 2 mps 671 mmHg 46%
    11:00 +14°C° 0 mm 2 mps 670 mmHg 43%
    12:00 +15°C° 0 mm 2 mps 670 mmHg 39%
    13:00 +16°C° 0 mm 2 mps 670 mmHg 36%
    14:00 +15°C° 0 mm 2 mps 670 mmHg 37%
    15:00 +14°C° 0 mm 3 mps 670 mmHg 38%
    16:00 +14°C° 0 mm 3 mps 669 mmHg 39%
    17:00 +13°C° 0 mm 2 mps 669 mmHg 47%
    18:00 +10°C° 0 mm 2 mps 668 mmHg 55%
    19:00 +8°C° 0 mm 2 mps 668 mmHg 62%
    20:00 +9°C° 0 mm 1 mps 668 mmHg 62%
    21:00 +8°C° 0 mm 1 mps 668 mmHg 63%
    22:00 +8°C° 0 mm 1 mps 668 mmHg 63%
    23:00 +7°C° 0 mm 1 mps 668 mmHg 63%

    25 March, Monday

    Time Temperature Precipitation Wind Pressure Humidity
    00:00 +7°C° 0 mm 1 mps 668 mmHg 63%
    01:00 +7°C° 0 mm 1 mps 668 mmHg 62%
    02:00 +7°C° 0 mm 1 mps 667 mmHg 62%
    03:00 +6°C° 0 mm 1 mps 667 mmHg 62%
    04:00 +5°C° 0 mm 0 mps 667 mmHg 63%
    05:00 +6°C° 0 mm 0 mps 667 mmHg 61%
    06:00 +7°C° 0 mm 0 mps 667 mmHg 58%
    07:00 +8°C° 0 mm 0 mps 667 mmHg 56%
    08:00 +11°C° 0 mm 1 mps 668 mmHg 52%
    09:00 +12°C° 0 mm 1 mps 668 mmHg 47%
    10:00 +14°C° 0 mm 1 mps 669 mmHg 43%
    11:00 +15°C° 0 mm 2 mps 668 mmHg 41%
    12:00 +15°C° 0 mm 2 mps 668 mmHg 40%
    13:00 +16°C° 0 mm 3 mps 668 mmHg 38%
    14:00 +14°C° 0 mm 3 mps 667 mmHg 42%
    15:00 +14°C° 0 mm 3 mps 667 mmHg 46%
    16:00 +13°C° 0 mm 3 mps 666 mmHg 50%
    17:00 +11°C° 0 mm 3 mps 666 mmHg 60%
    18:00 +9°C° 0 mm 2 mps 665 mmHg 71%
    19:00 +9°C° 0 mm 1 mps 665 mmHg 82%
    20:00 +8°C° 0 mm 1 mps 665 mmHg 84%
    21:00 +7°C° 0 mm 1 mps 664 mmHg 87%
    22:00 +6°C° 0 mm 0 mps 664 mmHg 90%
    23:00 +5°C° 0 mm 0 mps 664 mmHg 88%

    26 March, Tuesday

    Time Temperature Precipitation Wind Pressure Humidity
    00:00 +5°C° 0 mm 0 mps 664 mmHg 85%
    01:00 +5°C° 0 mm 0 mps 663 mmHg 83%
    02:00 +4°C° 0 mm 0 mps 663 mmHg 81%
    03:00 +4°C° 0 mm 0 mps 663 mmHg 78%
    04:00 +4°C° 0 mm 0 mps 663 mmHg 76%
    05:00 +4°C° 0 mm 0 mps 663 mmHg 71%
    06:00 +5°C° 0 mm 0 mps 663 mmHg 67%
    07:00 +6°C° 0 mm 0 mps 663 mmHg 62%
    08:00 +9°C° 0 mm 1 mps 664 mmHg 55%
    09:00 +11°C° 0 mm 1 mps 664 mmHg 47%
    10:00 +13°C° 0 mm 1 mps 665 mmHg 40%
    11:00 +13°C° 0 mm 1 mps 665 mmHg 41%
    12:00 +13°C° 0 mm 2 mps 664 mmHg 41%
    13:00 +12°C° 0 mm 3 mps 664 mmHg 42%
    14:00 +10°C° 0.6 mm 2 mps 664 mmHg 52%
    15:00 +9°C° 0.6 mm 2 mps 663 mmHg 63%
    16:00 +8°C° 0.6 mm 2 mps 663 mmHg 73%
    17:00 +6°C° 1.5 mm 2 mps 663 mmHg 78%
    18:00 +5°C° 1.5 mm 2 mps 663 mmHg 83%
    19:00 +4°C° 1.5 mm 2 mps 663 mmHg 88%
    20:00 +2°C° 0.9 mm 3 mps 663 mmHg 88%
    21:00 +1°C° 0.9 mm 3 mps 663 mmHg 87%
    22:00 0°C° 0.9 mm 3 mps 662 mmHg 86%
    23:00 0°C° 0.4 mm 3 mps 662 mmHg 86%

    27 March, Wednesday

    Time Temperature Precipitation Wind Pressure Humidity
    00:00 0°C° 0.4 mm 3 mps 662 mmHg 85%
    01:00 -1°C° 0.4 mm 3 mps 662 mmHg 84%
    02:00 -1°C° 0.4 mm 3 mps 662 mmHg 85%
    03:00 -1°C° 0.4 mm 3 mps 662 mmHg 86%
    04:00 -1°C° 0.4 mm 3 mps 662 mmHg 86%
    05:00 -1°C° 0.1 mm 3 mps 663 mmHg 86%
    06:00 -1°C° 0.1 mm 3 mps 663 mmHg 85%
    07:00 0°C° 0.1 mm 3 mps 664 mmHg 85%
    08:00 +1°C° 0 mm 3 mps 665 mmHg 82%
    09:00 +1°C° 0 mm 3 mps 666 mmHg 80%
    10:00 +2°C° 0 mm 3 mps 666 mmHg 77%
    11:00 +3°C° 0.1 mm 3 mps 667 mmHg 76%
    12:00 +3°C° 0.1 mm 3 mps 667 mmHg 74%
    13:00 +4°C° 0.1 mm 3 mps 667 mmHg 72%
    14:00 +4°C° 0 mm 3 mps 667 mmHg 71%
    15:00 +4°C° 0 mm 3 mps 667 mmHg 70%
    16:00 +4°C° 0 mm 3 mps 667 mmHg 69%
    17:00 +3°C° 0 mm 3 mps 667 mmHg 74%
    18:00 +3°C° 0 mm 2 mps 667 mmHg 79%
    19:00 +1°C° 0 mm 2 mps 668 mmHg 83%
    20:00 +1°C° 0 mm 2 mps 668 mmHg 84%
    21:00 +1°C° 0 mm 2 mps 668 mmHg 85%
    22:00 -1°C° 0 mm 2 mps 668 mmHg 85%
    23:00 -1°C° 0 mm 2 mps 668 mmHg 85%
    Show more